This is the latest recevied weather packets stored in our database for station/object WA1TYB-13. If no packets are shown the sender has not sent any weather packets the latest 10 day(s).
| Time | Temp. | Humidity | Pressure | Rain* | Wind** | Luminosity | Snow |
|---|---|---|---|---|---|---|---|
| 1777536684 | 1.67° C | 69% | 1025.8 hPa | 0 mm | - | 0 W/m² | - |
| 1777536381 | 1.11° C | 72% | 1025.9 hPa | 0 mm | - | 0 W/m² | - |
| 1777536078 | 1.11° C | 72% | 1025.8 hPa | 0 mm | - | 0 W/m² | - |
| 1777535773 | 1.67° C | 71% | 1026 hPa | 0 mm | - | 0 W/m² | - |
| 1777535470 | 1.67° C | 69% | 1026 hPa | 0 mm | - | 0 W/m² | - |
| 1777535167 | 2.22° C | 67% | 1025.8 hPa | 0 mm | - | 0 W/m² | - |
| 1777534863 | 2.78° C | 67% | 1025.9 hPa | 0 mm | - | 0 W/m² | - |
| 1777534560 | 2.78° C | 66% | 1025.9 hPa | 0 mm | - | 0 W/m² | - |
| 1777534258 | 2.22° C | 67% | 1025.9 hPa | 0 mm | - | 0 W/m² | - |
| 1777533956 | 2.78° C | 67% | 1025.8 hPa | 0 mm | - | 0 W/m² | - |
| 1777533653 | 2.78° C | 67% | 1025.9 hPa | 0 mm | - | 0 W/m² | - |
| 1777533349 | 2.78° C | 66% | 1025.9 hPa | 0 mm | - | 0 W/m² | - |
| 1777533045 | 2.78° C | 66% | 1025.7 hPa | 0 mm | - | 0 W/m² | - |
| 1777532743 | 2.78° C | 66% | 1025.7 hPa | 0 mm | - | 0 W/m² | - |
| 1777532439 | 2.78° C | 65% | 1025.5 hPa | 0 mm | - | 0 W/m² | - |
| 1777532136 | 2.78° C | 67% | 1025.5 hPa | 0 mm | - | 0 W/m² | - |
| 1777531832 | 2.22° C | 68% | 1025.7 hPa | 0 mm | - | 0 W/m² | - |
| 1777531527 | 2.22° C | 68% | 1025.9 hPa | 0 mm | - | 0 W/m² | - |
| 1777531226 | 2.78° C | 67% | 1025.9 hPa | 0 mm | - | 0 W/m² | - |
| 1777530923 | 2.78° C | 66% | 1025.5 hPa | 0 mm | - | 0 W/m² | - |
| 1777530620 | 3.33° C | 66% | 1025.5 hPa | 0 mm | - | 0 W/m² | - |
| 1777530317 | 2.78° C | 66% | 1025.4 hPa | 0 mm | - | 0 W/m² | - |
| 1777530013 | 2.78° C | 65% | 1025.5 hPa | 0 mm | - | 0 W/m² | - |
| 1777529711 | 3.33° C | 65% | 1025.5 hPa | 0 mm | - | 0 W/m² | - |
| 1777529407 | 3.33° C | 65% | 1025.2 hPa | 0 mm | - | 0 W/m² | - |
* Rain latest hour (hover to see other rain measurements)
** Current wind speed in m/s (hover to see current wind gust speed)